UAL3916 KSFO-KLAX

Flight info

Callsign UAL3916
Flight time 0h 54m
Altitude 35000
Route WESLA5 SUSEY EBAYE BURGL IRNMN2
Aircraft B789/H-SDE1E2E3FGHIJ2J3J4J5M1RWXY/LB1D1

Departure

Time 2026-04-25 06:42
Airport San Francisco International Airport (KSFO)

Arrival

Time 2026-04-25 07:36
Airport Los Angeles International Airport (KLAX)
Time Latitude Longitude Altitude Speed Heading
2026-04-25 06:00 37.61221 -122.38896 27 ft 0 kts 298°
2026-04-25 06:23 37.61218 -122.38888 27 ft 4 kts 298°
2026-04-25 06:23 37.61205 -122.38858 25 ft 4 kts 295°
2026-04-25 06:23 37.61198 -122.38826 27 ft 4 kts 265°
2026-04-25 06:23 37.61206 -122.38796 25 ft 4 kts 228°
2026-04-25 06:24 37.61217 -122.38783 26 ft 2 kts 207°
2026-04-25 06:29 37.61210 -122.38788 25 ft 3 kts 207°
2026-04-25 06:30 37.61174 -122.38812 27 ft 11 kts 207°
2026-04-25 06:30 37.61072 -122.38871 27 ft 15 kts 188°
2026-04-25 06:30 37.61006 -122.38829 27 ft 9 kts 127°
2026-04-25 06:30 37.60965 -122.38754 27 ft 12 kts 123°
2026-04-25 06:31 37.60920 -122.38651 27 ft 16 kts 117°
2026-04-25 06:31 37.60885 -122.38517 27 ft 12 kts 75°
2026-04-25 06:31 37.60917 -122.38478 27 ft 7 kts 28°
2026-04-25 06:31 37.60987 -122.38425 27 ft 13 kts 34°
2026-04-25 06:32 37.61071 -122.38354 27 ft 15 kts 43°
2026-04-25 06:32 37.61087 -122.38313 27 ft 1 kts 77°
2026-04-25 06:32 37.61092 -122.38289 27 ft 3 kts 76°
2026-04-25 06:32 37.61113 -122.38253 27 ft 11 kts 47°
2026-04-25 06:33 37.61194 -122.38186 27 ft 15 kts 27°
2026-04-25 06:33 37.61298 -122.38117 27 ft 18 kts 28°
2026-04-25 06:33 37.61366 -122.38012 27 ft 12 kts 94°
2026-04-25 06:33 37.61337 -122.37921 27 ft 14 kts 113°
2026-04-25 06:34 37.61272 -122.37767 27 ft 26 kts 118°
2026-04-25 06:34 37.61257 -122.37522 28 ft 31 kts 56°
2026-04-25 06:34 37.61405 -122.37403 27 ft 24 kts 27°
2026-04-25 06:34 37.61478 -122.37355 27 ft 1 kts 29°
2026-04-25 06:35 37.61492 -122.37344 27 ft 4 kts 29°
2026-04-25 06:35 37.61534 -122.37299 27 ft 12 kts 58°
2026-04-25 06:35 37.61553 -122.37130 27 ft 25 kts 107°
2026-04-25 06:35 37.61467 -122.36928 27 ft 27 kts 128°
2026-04-25 06:36 37.61347 -122.36734 27 ft 29 kts 121°
2026-04-25 06:36 37.61253 -122.36508 27 ft 30 kts 117°
2026-04-25 06:36 37.61150 -122.36269 27 ft 31 kts 119°
2026-04-25 06:36 37.61057 -122.36033 28 ft 22 kts 104°
2026-04-25 06:37 37.61054 -122.35997 27 ft 0 kts 90°
2026-04-25 06:39 37.61056 -122.35992 27 ft 1 kts 74°
2026-04-25 06:39 37.61080 -122.35937 27 ft 13 kts 50°
2026-04-25 06:39 37.61143 -122.35897 27 ft 7 kts
2026-04-25 06:39 37.61176 -122.35907 27 ft 4 kts 338°
2026-04-25 06:40 37.61209 -122.35940 27 ft 11 kts 306°
2026-04-25 06:40 37.61229 -122.35978 27 ft 0 kts 300°
2026-04-25 06:41 37.61229 -122.35979 27 ft 0 kts 300°
2026-04-25 06:41 37.61240 -122.36003 27 ft 5 kts 300°
2026-04-25 06:41 37.61335 -122.36224 28 ft 69 kts 297°
2026-04-25 06:41 37.61680 -122.37057 46 ft 144 kts 297°
2026-04-25 06:42 37.62157 -122.38260 501 ft 158 kts 291°
2026-04-25 06:42 37.62688 -122.39611 787 ft 185 kts 298°
2026-04-25 06:42 37.63388 -122.41112 962 ft 211 kts 298°
2026-04-25 06:42 37.64098 -122.42701 1600 ft 209 kts 297°
2026-04-25 06:43 37.64816 -122.44340 2111 ft 221 kts 297°
2026-04-25 06:43 37.65576 -122.46074 2806 ft 224 kts 298°
2026-04-25 06:43 37.66347 -122.47825 2991 ft 237 kts 298°
2026-04-25 06:43 37.66845 -122.49771 2979 ft 236 kts 274°
2026-04-25 06:44 37.66545 -122.51787 2990 ft 238 kts 246°
2026-04-25 06:44 37.65488 -122.53396 2987 ft 242 kts 218°
2026-04-25 06:44 37.63927 -122.54149 2998 ft 247 kts 188°
2026-04-25 06:44 37.62218 -122.53825 3012 ft 249 kts 163°
2026-04-25 06:45 37.60588 -122.53052 3097 ft 256 kts 160°
2026-04-25 06:45 37.58881 -122.52200 3827 ft 265 kts 159°
2026-04-25 06:45 37.57157 -122.51363 4883 ft 269 kts 159°
2026-04-25 06:45 37.55389 -122.50523 5882 ft 271 kts 159°
2026-04-25 06:46 37.53633 -122.49687 6836 ft 274 kts 159°
2026-04-25 06:46 37.51843 -122.48828 7752 ft 277 kts 159°
2026-04-25 06:46 37.50083 -122.47984 8624 ft 280 kts 158°
2026-04-25 06:46 37.48400 -122.46658 9460 ft 284 kts 132°
2026-04-25 06:47 37.47096 -122.44800 10216 ft 291 kts 133°
2026-04-25 06:47 37.45632 -122.42884 10449 ft 317 kts 134°
2026-04-25 06:47 37.44047 -122.40770 10597 ft 345 kts 133°
2026-04-25 06:47 37.42377 -122.38473 11065 ft 359 kts 132°
2026-04-25 06:48 37.40690 -122.36157 11937 ft 362 kts 133°
2026-04-25 06:48 37.38955 -122.33806 12693 ft 368 kts 133°
2026-04-25 06:48 37.37204 -122.31439 13471 ft 373 kts 133°
2026-04-25 06:48 37.35429 -122.29029 14177 ft 378 kts 132°
2026-04-25 06:49 37.33627 -122.26579 14860 ft 383 kts 133°
2026-04-25 06:49 37.31801 -122.24106 15520 ft 389 kts 133°
2026-04-25 06:49 37.29952 -122.21606 16198 ft 394 kts 133°
2026-04-25 06:49 37.28075 -122.19066 16878 ft 398 kts 133°
2026-04-25 06:50 37.26178 -122.16500 17558 ft 403 kts 133°
2026-04-25 06:50 37.24263 -122.13914 18185 ft 408 kts 134°
2026-04-25 06:50 37.22315 -122.11286 18754 ft 413 kts 134°
2026-04-25 06:50 37.21018 -122.09536 19112 ft 416 kts 134°
2026-04-25 06:51 37.19025 -122.06850 19666 ft 421 kts 134°
2026-04-25 06:51 37.17025 -122.04157 20220 ft 425 kts 135°
2026-04-25 06:51 37.14992 -122.01421 20750 ft 430 kts 135°
2026-04-25 06:51 37.12272 -121.97766 21453 ft 436 kts 135°
2026-04-25 06:52 37.10873 -121.95887 21811 ft 438 kts 135°
2026-04-25 06:52 37.08781 -121.93079 22326 ft 442 kts 136°
2026-04-25 06:52 37.06698 -121.90286 22830 ft 446 kts 136°
2026-04-25 06:52 37.04542 -121.87397 23321 ft 451 kts 136°
2026-04-25 06:53 37.02385 -121.84510 23767 ft 455 kts 136°
2026-04-25 06:53 37.00217 -121.81611 24204 ft 457 kts 137°
2026-04-25 06:53 36.98067 -121.78738 24594 ft 461 kts 137°
2026-04-25 06:53 36.95861 -121.75793 25010 ft 464 kts 137°
2026-04-25 06:54 36.93646 -121.72839 25397 ft 467 kts 137°
2026-04-25 06:54 36.91417 -121.69869 25805 ft 470 kts 137°
2026-04-25 06:54 36.89173 -121.66882 26196 ft 473 kts 138°
2026-04-25 06:54 36.86916 -121.63880 26600 ft 476 kts 138°
2026-04-25 06:55 36.84643 -121.60860 26971 ft 479 kts 138°
2026-04-25 06:55 36.82356 -121.57825 27343 ft 482 kts 138°
2026-04-25 06:55 36.80043 -121.54756 27712 ft 485 kts 139°
2026-04-25 06:55 36.77724 -121.51683 28085 ft 488 kts 139°
2026-04-25 06:56 36.75381 -121.48581 28449 ft 492 kts 139°
2026-04-25 06:56 36.73071 -121.45522 29012 ft 490 kts 139°
2026-04-25 06:56 36.70735 -121.42435 29534 ft 489 kts 139°
2026-04-25 06:56 36.68395 -121.39348 30043 ft 490 kts 140°
2026-04-25 06:57 36.66059 -121.36269 30463 ft 490 kts 140°
2026-04-25 06:57 36.63719 -121.33185 30875 ft 489 kts 140°
2026-04-25 06:57 36.61376 -121.30100 31302 ft 489 kts 140°
2026-04-25 06:57 36.59039 -121.27027 31720 ft 489 kts 140°
2026-04-25 06:58 36.56697 -121.23950 32132 ft 489 kts 140°
2026-04-25 06:58 36.54359 -121.20880 32552 ft 489 kts 140°
2026-04-25 06:58 36.52023 -121.17817 32993 ft 488 kts 140°
2026-04-25 06:58 36.49678 -121.14745 33415 ft 487 kts 140°
2026-04-25 06:59 36.47412 -121.11779 33856 ft 486 kts 140°
2026-04-25 06:59 36.45114 -121.08773 34240 ft 486 kts 140°
2026-04-25 06:59 36.42805 -121.05707 34597 ft 487 kts 136°
2026-04-25 06:59 36.40612 -121.02506 34946 ft 486 kts 137°
2026-04-25 07:00 36.38381 -120.99322 34990 ft 491 kts 138°
2026-04-25 07:00 36.33932 -120.92940 34982 ft 484 kts 137°
2026-04-25 07:01 36.29535 -120.86628 34981 ft 483 kts 138°
2026-04-25 07:01 36.25137 -120.80340 34982 ft 483 kts 137°
2026-04-25 07:02 36.20737 -120.74048 34973 ft 483 kts 138°
2026-04-25 07:02 36.16359 -120.67810 34980 ft 483 kts 138°
2026-04-25 07:03 36.11956 -120.61537 34973 ft 482 kts 138°
2026-04-25 07:03 36.07552 -120.55282 34974 ft 482 kts 138°
2026-04-25 07:04 36.03147 -120.49036 34966 ft 482 kts 138°
2026-04-25 07:04 35.98734 -120.42791 34970 ft 483 kts 138°
2026-04-25 07:05 35.94308 -120.36536 34967 ft 483 kts 138°
2026-04-25 07:05 35.89891 -120.30307 34964 ft 482 kts 138°
2026-04-25 07:06 35.85078 -120.24725 34984 ft 465 kts 156°
2026-04-25 07:06 35.79639 -120.20587 34966 ft 462 kts 157°
2026-04-25 07:06 35.76909 -120.18527 34948 ft 451 kts 157°
2026-04-25 07:07 35.74262 -120.16530 34952 ft 444 kts 157°
2026-04-25 07:07 35.68884 -120.12505 34972 ft 460 kts 157°
2026-04-25 07:08 35.63398 -120.08354 34972 ft 463 kts 157°
2026-04-25 07:08 35.57949 -120.04242 34969 ft 462 kts 157°
2026-04-25 07:09 35.52477 -120.00122 34965 ft 461 kts 157°
2026-04-25 07:09 35.47012 -119.96010 34961 ft 460 kts 157°
2026-04-25 07:10 35.41556 -119.91915 34954 ft 459 kts 157°
2026-04-25 07:10 35.36100 -119.87824 34952 ft 459 kts 157°
2026-04-25 07:11 35.30652 -119.83746 34954 ft 459 kts 157°
2026-04-25 07:11 35.25423 -119.79161 34961 ft 465 kts 151°
2026-04-25 07:12 35.20304 -119.74409 34945 ft 464 kts 151°
2026-04-25 07:12 35.15203 -119.69633 33663 ft 463 kts 150°
2026-04-25 07:12 35.12651 -119.67254 33069 ft 459 kts 150°
2026-04-25 07:13 35.10128 -119.64904 32580 ft 455 kts 150°
2026-04-25 07:13 35.07594 -119.62549 32154 ft 459 kts 149°
2026-04-25 07:13 35.05027 -119.60168 31769 ft 466 kts 149°
2026-04-25 07:13 35.02436 -119.57756 31412 ft 469 kts 149°
2026-04-25 07:14 34.99829 -119.55331 30793 ft 474 kts 149°
2026-04-25 07:14 34.97199 -119.52892 30117 ft 473 kts 148°
2026-04-25 07:14 34.94613 -119.50494 29339 ft 471 kts 148°
2026-04-25 07:14 34.92006 -119.48077 28563 ft 469 kts 148°
2026-04-25 07:15 34.89409 -119.45693 27809 ft 466 kts 149°
2026-04-25 07:15 34.86787 -119.43372 27081 ft 465 kts 150°
2026-04-25 07:15 34.84161 -119.41058 26374 ft 468 kts 149°
2026-04-25 07:15 34.81545 -119.38706 25947 ft 462 kts 149°
2026-04-25 07:16 34.78966 -119.36377 25948 ft 462 kts 149°
2026-04-25 07:16 34.76353 -119.34054 25947 ft 469 kts 149°
2026-04-25 07:16 34.73719 -119.31718 25943 ft 468 kts 149°
2026-04-25 07:16 34.71074 -119.29399 25828 ft 470 kts 150°
2026-04-25 07:17 34.68382 -119.27068 24988 ft 473 kts 150°
2026-04-25 07:17 34.65756 -119.24776 24210 ft 467 kts 149°
2026-04-25 07:17 34.63142 -119.22489 23427 ft 461 kts 150°
2026-04-25 07:17 34.60534 -119.20244 22535 ft 455 kts 150°
2026-04-25 07:18 34.57957 -119.18041 21304 ft 454 kts 150°
2026-04-25 07:18 34.55336 -119.15791 19606 ft 467 kts 149°
2026-04-25 07:18 34.52688 -119.13444 17973 ft 477 kts 147°
2026-04-25 07:18 34.50073 -119.11072 16611 ft 447 kts 147°
2026-04-25 07:19 34.47703 -119.08954 16024 ft 405 kts 148°
2026-04-25 07:19 34.45377 -119.06941 16010 ft 412 kts 149°
2026-04-25 07:19 34.43079 -119.04929 15963 ft 403 kts 148°
2026-04-25 07:19 34.40802 -119.02940 15341 ft 406 kts 149°
2026-04-25 07:20 34.38497 -119.00955 14457 ft 407 kts 149°
2026-04-25 07:20 34.36224 -118.98992 14045 ft 393 kts 148°
2026-04-25 07:20 34.34041 -118.97079 14024 ft 386 kts 146°
2026-04-25 07:20 34.31910 -118.95075 14024 ft 395 kts 148°
2026-04-25 07:21 34.29694 -118.93134 14025 ft 393 kts 148°
2026-04-25 07:21 34.27475 -118.91167 13905 ft 390 kts 147°
2026-04-25 07:21 34.25394 -118.89246 13865 ft 365 kts 147°
2026-04-25 07:21 34.23439 -118.87433 13849 ft 343 kts 147°
2026-04-25 07:22 34.21593 -118.85736 13797 ft 323 kts 148°
2026-04-25 07:22 34.19808 -118.84108 13252 ft 322 kts 148°
2026-04-25 07:22 34.18036 -118.82490 12768 ft 318 kts 147°
2026-04-25 07:22 34.16297 -118.80857 12266 ft 315 kts 142°
2026-04-25 07:23 34.14712 -118.79055 12004 ft 306 kts 142°
2026-04-25 07:23 34.13114 -118.77372 12003 ft 306 kts 143°
2026-04-25 07:23 34.11498 -118.75657 12005 ft 312 kts 142°
2026-04-25 07:23 34.09884 -118.73889 12005 ft 314 kts 142°
2026-04-25 07:24 34.08268 -118.72116 12003 ft 314 kts 142°
2026-04-25 07:24 34.06664 -118.70374 11611 ft 309 kts 142°
2026-04-25 07:24 34.05085 -118.68669 11168 ft 305 kts 142°
2026-04-25 07:24 34.03621 -118.66895 10887 ft 297 kts 128°
2026-04-25 07:25 34.02817 -118.64585 10409 ft 301 kts 103°
2026-04-25 07:25 34.02544 -118.62100 9965 ft 298 kts 97°
2026-04-25 07:25 34.02324 -118.59627 9533 ft 294 kts 97°
2026-04-25 07:25 34.02106 -118.57185 9069 ft 292 kts 97°
2026-04-25 07:26 34.01875 -118.54776 8785 ft 282 kts 97°
2026-04-25 07:26 34.01658 -118.52500 8741 ft 264 kts 97°
2026-04-25 07:26 34.01456 -118.50351 8547 ft 254 kts 97°
2026-04-25 07:26 34.01256 -118.48233 8162 ft 254 kts 97°
2026-04-25 07:27 34.01068 -118.46138 7804 ft 250 kts 94°
2026-04-25 07:27 34.01306 -118.44071 7399 ft 248 kts 74°
2026-04-25 07:27 34.01678 -118.42051 7039 ft 246 kts 78°
2026-04-25 07:27 34.01999 -118.40031 6712 ft 244 kts 78°
2026-04-25 07:28 34.02336 -118.38028 6376 ft 242 kts 77°
2026-04-25 07:28 34.02674 -118.36072 6056 ft 237 kts 78°
2026-04-25 07:28 34.02826 -118.34195 6000 ft 212 kts 84°
2026-04-25 07:28 34.03030 -118.32517 5988 ft 194 kts 81°
2026-04-25 07:29 34.03220 -118.30933 5987 ft 189 kts 82°
2026-04-25 07:29 34.03224 -118.29369 5933 ft 188 kts 103°
2026-04-25 07:29 34.02789 -118.27894 5599 ft 187 kts 112°
2026-04-25 07:29 34.02317 -118.26393 5021 ft 199 kts 111°
2026-04-25 07:30 34.01852 -118.24813 4385 ft 199 kts 110°
2026-04-25 07:30 34.01403 -118.23249 3771 ft 193 kts 109°
2026-04-25 07:30 34.00978 -118.21785 3134 ft 177 kts 109°
2026-04-25 07:30 34.00586 -118.20429 2473 ft 168 kts 109°
2026-04-25 07:31 34.00055 -118.19246 2117 ft 156 kts 136°
2026-04-25 07:31 33.99047 -118.18694 2165 ft 167 kts 169°
2026-04-25 07:31 33.97942 -118.19028 2166 ft 166 kts 210°
2026-04-25 07:31 33.97328 -118.20143 2124 ft 163 kts 256°
2026-04-25 07:32 33.97176 -118.21487 2186 ft 164 kts 258°
2026-04-25 07:32 33.97005 -118.22754 2196 ft 159 kts 261°
2026-04-25 07:32 33.96858 -118.24046 2202 ft 159 kts 261°
2026-04-25 07:32 33.96723 -118.25363 2191 ft 158 kts 262°
2026-04-25 07:33 33.96589 -118.26675 2189 ft 157 kts 262°
2026-04-25 07:33 33.96454 -118.27992 2148 ft 161 kts 262°
2026-04-25 07:33 33.96318 -118.29325 1933 ft 159 kts 262°
2026-04-25 07:33 33.96185 -118.30636 1735 ft 157 kts 262°
2026-04-25 07:34 33.96053 -118.31928 1508 ft 154 kts 262°
2026-04-25 07:34 33.95922 -118.33210 1308 ft 154 kts 262°
2026-04-25 07:34 33.95792 -118.34481 1097 ft 152 kts 262°
2026-04-25 07:34 33.95666 -118.35722 892 ft 150 kts 262°
2026-04-25 07:35 33.95537 -118.36984 683 ft 149 kts 261°
2026-04-25 07:35 33.95410 -118.38192 529 ft 148 kts 259°
2026-04-25 07:35 33.95286 -118.39443 308 ft 148 kts 261°
2026-04-25 07:35 33.95163 -118.40646 151 ft 145 kts 261°
2026-04-25 07:36 33.95051 -118.41757 124 ft 108 kts 263°
2026-04-25 07:36 33.94980 -118.42394 128 ft 51 kts 258°
2026-04-25 07:36 33.94854 -118.42675 126 ft 21 kts 225°
2026-04-25 07:36 33.94729 -118.42767 127 ft 21 kts 188°
2026-04-25 07:37 33.94648 -118.42753 128 ft 11 kts 140°
2026-04-25 07:37 33.94636 -118.42703 129 ft 8 kts 84°
2026-04-25 07:37 33.94639 -118.42671 131 ft 0 kts 83°
2026-04-25 07:41 33.94639 -118.42669 131 ft 3 kts 83°
2026-04-25 07:41 33.94648 -118.42586 128 ft 17 kts 83°
2026-04-25 07:41 33.94667 -118.42387 128 ft 30 kts 83°
2026-04-25 07:41 33.94695 -118.42092 129 ft 41 kts 84°
2026-04-25 07:42 33.94729 -118.41704 127 ft 52 kts 84°
2026-04-25 07:42 33.94778 -118.41396 127 ft 30 kts 74°
2026-04-25 07:42 33.94811 -118.41141 130 ft 31 kts 84°
2026-04-25 07:42 33.94837 -118.40873 131 ft 33 kts 83°
2026-04-25 07:43 33.94315 -118.43033 131 ft 0 kts 82°
2026-04-25 07:43 33.94318 -118.43007 126 ft 6 kts 82°
2026-04-25 07:43 33.94318 -118.43005 126 ft 0 kts 82°